(97) Klotho
ephemeris date magn radius delta ra dec elong phase
Today18 Sep 202513.83.117 AU3.985 AU13h26m-01°32'26.4°8.2°
Opposition26 May 202612.73.355 AU2.372 AU16h27m-04°47'163.2°5.0°
(97) Klotho - 2025-09-18
astro.vanbuitenen.nl


 
-1 year
-1 month
-1 day
Now
+1 day
+1 month
+1 year

The interactive orbit chart above shows the body's path through the solar system and its position at the given date. Green and blue lines are shown perpendicular to the ecliptic plane: Green if the path is above the ecliptic plane, blue if it is below. (Left-click and drag to rotate the view; Right-click and drag to move the view; Use scroll wheel to zoom in our out.)

The orbital elements of Klotho are:

            e (Eccentricity)                : 0.2577416
            a (Semimajor axis)              : 2.6678835
            i (Inclination)                 : 11.77626
            Ω (Longitude of ascending node) : 159.59059
            ω (Argument of perihelion)      : 268.40122
            M (Mean anomaly)                : 88.85203
            Epoch                           : 2025 May 05

            L (Longitude of perihelion)     : 247.95745
            B (Latitude of perihelion)      : -11.77161
            P (Orbital period in years)     : 4.36            
        

The light curve chart below shows the estimated development of the minor planet's magnitude.


The all-sky chart below shows the path of the minor planet over the same period as the light curve. The current position is marked yellow.





The following chart shows the path of the minor planet in the next few days. The field of view is optimized for (~10x50) binoculars and finderscopes. A more printer-friendly version of the same chart can be found below.




Ephemerides:
Date       Time       RA (2000)    DEC (2000)    delta   radius  elong  phase   PA    magn
2025-09-18 00:00 UT   13 26 21.4   -01 32 26     3.985    3.117   26.4    8.2    98   13.8 
2025-09-18 19:24 UT   13 27 25.0   -01 38 25     3.991    3.119   25.9    8.1    97   13.8 
2025-09-19 00:00 UT   13 27 40.1   -01 39 50     3.992    3.119   25.8    8.1    97   13.8 
2025-09-20 00:00 UT   13 28 58.8   -01 47 13     4.000    3.121   25.2    7.9    97   13.8 
2025-09-21 00:00 UT   13 30 17.8   -01 54 36     4.007    3.122   24.6    7.7    96   13.8 
2025-09-22 00:00 UT   13 31 36.9   -02 01 57     4.014    3.124   24.0    7.5    96   13.8 
2025-09-23 00:00 UT   13 32 56.1   -02 09 17     4.021    3.126   23.4    7.3    95   13.8 
2025-09-24 00:00 UT   13 34 15.4   -02 16 35     4.028    3.128   22.9    7.2    95   13.8 
2025-09-25 00:00 UT   13 35 34.8   -02 23 53     4.034    3.129   22.3    7.0    94   13.8 
2025-09-26 00:00 UT   13 36 54.4   -02 31 09     4.041    3.131   21.7    6.8    93   13.8 
2025-09-27 00:00 UT   13 38 14.1   -02 38 24     4.047    3.133   21.1    6.6    93   13.8 
2025-09-28 00:00 UT   13 39 33.9   -02 45 37     4.053    3.134   20.5    6.4    92   13.8 
2025-09-29 00:00 UT   13 40 53.9   -02 52 49     4.059    3.136   19.9    6.3    91   13.8 
2025-09-30 00:00 UT   13 42 13.9   -02 59 59     4.065    3.138   19.3    6.1    90   13.8 
2025-10-01 00:00 UT   13 43 34.0   -03 07 07     4.071    3.139   18.8    5.9    90   13.8 
2025-10-02 00:00 UT   13 44 54.3   -03 14 14     4.076    3.141   18.2    5.7    89   13.8 
2025-10-03 00:00 UT   13 46 14.6   -03 21 20     4.082    3.143   17.6    5.5    88   13.8 
2025-10-04 00:00 UT   13 47 35.0   -03 28 23     4.087    3.144   17.1    5.4    87   13.8 
2025-10-05 00:00 UT   13 48 55.6   -03 35 25     4.092    3.146   16.5    5.2    86   13.8 
2025-10-06 00:00 UT   13 50 16.2   -03 42 25     4.097    3.148   15.9    5.0    85   13.8 
2025-10-07 00:00 UT   13 51 36.9   -03 49 23     4.102    3.149   15.4    4.8    84   13.8 
2025-10-08 00:00 UT   13 52 57.7   -03 56 20     4.107    3.151   14.8    4.7    82   13.8 
2025-10-09 00:00 UT   13 54 18.6   -04 03 14     4.111    3.153   14.3    4.5    81   13.7 
2025-10-10 00:00 UT   13 55 39.6   -04 10 07     4.115    3.154   13.8    4.3    80   13.7 
2025-10-11 00:00 UT   13 57 00.6   -04 16 57     4.119    3.156   13.2    4.2    78   13.7 
2025-10-12 00:00 UT   13 58 21.8   -04 23 46     4.123    3.158   12.7    4.0    76   13.7 


    Terminology:
            
    delta:  distance between minor planet and earth in AU
    radius: distance between minor planet and sun in AU
    magn:   magnitude (brightness) estimate    
    ra:     right ascension in hours (24h = 360deg)
    dec:    declination in degrees
    elong:  elongation in degrees (angle sun-earth-minor planet)    
    phase:  phase angle in degrees (angle sun-minor planet-earth)        
    AU:     Astronomical Unit (mean distance between earth and sun: 149597870.7 km
    

Orbital elements provided by the MPC (Minor Planet Center).
Calculations by a modified version of AAPlus, a C# implementation of the AA+ project by PJ Naughter from the algorithms presented in the book "Astronomical Algorithms" by Jean Meeus.
NGC2000 dso catalog and star labels from VizieR as provided by the Strasbourg astronomical Data Center.
Tycho2 catalog from the ESO archive.